Year,Month,Day,Hour,Minute,Value (Times are PST for windspeed in km/hr)
2006,12,15,00,00,4.00
2006,12,15,00,01,4.60
2006,12,15,00,02,5.60
2006,12,15,00,03,5.80
2006,12,15,00,04,3.30
2006,12,15,00,05,3.00
2006,12,15,00,06,6.80
2006,12,15,00,07,14.00
2006,12,15,00,08,17.10
2006,12,15,00,09,11.00
2006,12,15,00,10,6.30
2006,12,15,00,11,10.20
2006,12,15,00,12,6.70
2006,12,15,00,13,6.00
2006,12,15,00,14,6.00
2006,12,15,00,15,16.20
2006,12,15,00,16,15.20
2006,12,15,00,17,8.60
2006,12,15,00,18,12.20
2006,12,15,00,19,10.80
2006,12,15,00,20,14.70
2006,12,15,00,21,15.40
2006,12,15,00,22,10.80
2006,12,15,00,23,14.10
2006,12,15,00,24,12.70
2006,12,15,00,25,9.90
2006,12,15,00,26,16.50
2006,12,15,00,27,13.00
2006,12,15,00,28,14.60
2006,12,15,00,29,17.70
2006,12,15,00,30,7.70
2006,12,15,00,31,13.00
2006,12,15,00,32,9.50
2006,12,15,00,33,15.90
2006,12,15,00,34,12.80
2006,12,15,00,35,15.50
2006,12,15,00,36,18.60
2006,12,15,00,37,12.30
2006,12,15,00,38,16.90
2006,12,15,00,39,15.10
2006,12,15,00,40,7.00
2006,12,15,00,41,10.60
2006,12,15,00,42,16.70
2006,12,15,00,43,16.10
2006,12,15,00,44,17.40
2006,12,15,00,45,14.10
2006,12,15,00,46,18.40
2006,12,15,00,47,18.40
2006,12,15,00,48,20.20
2006,12,15,00,49,18.30
2006,12,15,00,50,17.90
2006,12,15,00,51,26.60
2006,12,15,00,52,14.60
2006,12,15,00,53,27.70
2006,12,15,00,54,17.50
2006,12,15,00,55,21.40
2006,12,15,00,56,21.10
2006,12,15,00,57,20.00
2006,12,15,00,58,20.80
2006,12,15,00,59,22.80
2006,12,15,01,00,21.50
2006,12,15,01,01,15.50
2006,12,15,01,02,20.00
2006,12,15,01,03,23.80
2006,12,15,01,04,23.30
2006,12,15,01,05,25.80
2006,12,15,01,06,19.00
2006,12,15,01,07,17.10
2006,12,15,01,08,20.30
2006,12,15,01,09,19.80
2006,12,15,01,10,25.50
2006,12,15,01,11,16.30
2006,12,15,01,12,23.80
2006,12,15,01,13,15.40
2006,12,15,01,14,19.10
2006,12,15,01,15,18.30
2006,12,15,01,16,30.30
2006,12,15,01,17,31.10
2006,12,15,01,18,22.80
2006,12,15,01,19,20.00
2006,12,15,01,20,21.40
2006,12,15,01,21,16.90
2006,12,15,01,22,16.50
2006,12,15,01,23,21.90
2006,12,15,01,24,25.00
2006,12,15,01,25,24.80
2006,12,15,01,26,17.70
2006,12,15,01,27,21.30
2006,12,15,01,28,25.30
2006,12,15,01,29,29.60
2006,12,15,01,30,18.10
2006,12,15,01,31,20.20
2006,12,15,01,32,16.30
2006,12,15,01,33,19.40
2006,12,15,01,34,19.00
2006,12,15,01,35,19.10
2006,12,15,01,36,20.80
2006,12,15,01,37,21.60
2006,12,15,01,38,19.40
2006,12,15,01,39,12.40
2006,12,15,01,40,18.00
2006,12,15,01,41,21.60
2006,12,15,01,42,27.00
2006,12,15,01,43,20.40
2006,12,15,01,44,20.50
2006,12,15,01,45,26.60
2006,12,15,01,46,29.30
2006,12,15,01,47,19.60
2006,12,15,01,48,29.10
2006,12,15,01,49,26.90
2006,12,15,01,50,18.80
2006,12,15,01,51,20.40
2006,12,15,01,52,17.10
2006,12,15,01,53,16.60
2006,12,15,01,54,12.70
2006,12,15,01,55,17.30
2006,12,15,01,56,14.80
2006,12,15,01,57,20.30
2006,12,15,01,58,22.40
2006,12,15,01,59,20.60
2006,12,15,02,00,21.40
2006,12,15,02,01,25.60
2006,12,15,02,02,22.30
2006,12,15,02,03,21.90
2006,12,15,02,04,14.70
2006,12,15,02,05,15.80
2006,12,15,02,06,17.10
2006,12,15,02,07,17.60
2006,12,15,02,08,16.70
2006,12,15,02,09,17.00
2006,12,15,02,10,18.40
2006,12,15,02,11,27.30
2006,12,15,02,12,23.10
2006,12,15,02,13,25.50
2006,12,15,02,14,23.10
2006,12,15,02,15,19.00
2006,12,15,02,16,21.20
2006,12,15,02,17,17.10
2006,12,15,02,18,20.60
2006,12,15,02,19,20.40
2006,12,15,02,20,17.40
2006,12,15,02,21,13.80
2006,12,15,02,22,21.20
2006,12,15,02,23,18.80
2006,12,15,02,24,19.40
2006,12,15,02,25,17.00
2006,12,15,02,26,11.80
2006,12,15,02,27,24.10
2006,12,15,02,28,23.20
2006,12,15,02,29,23.50
2006,12,15,02,30,22.50
2006,12,15,02,31,15.50
2006,12,15,02,32,17.20
2006,12,15,02,33,15.70
2006,12,15,02,34,16.50
2006,12,15,02,35,19.60
2006,12,15,02,36,21.50
2006,12,15,02,37,27.60
2006,12,15,02,38,34.20
2006,12,15,02,39,30.80
2006,12,15,02,40,21.90
2006,12,15,02,41,22.00
2006,12,15,02,42,19.90
2006,12,15,02,43,19.40
2006,12,15,02,44,26.30
2006,12,15,02,45,17.90
2006,12,15,02,46,14.70
2006,12,15,02,47,32.00
2006,12,15,02,48,23.00
2006,12,15,02,49,26.90
2006,12,15,02,50,31.30
2006,12,15,02,51,31.50
2006,12,15,02,52,25.20
2006,12,15,02,53,30.90
2006,12,15,02,54,31.60
2006,12,15,02,55,32.50
2006,12,15,02,56,18.10
2006,12,15,02,57,23.10
2006,12,15,02,58,28.50
2006,12,15,02,59,26.10
2006,12,15,03,00,19.30
2006,12,15,03,01,25.10
2006,12,15,03,02,29.50
2006,12,15,03,03,28.90
2006,12,15,03,04,26.50
2006,12,15,03,05,29.60
2006,12,15,03,06,26.80
2006,12,15,03,07,29.90
2006,12,15,03,08,30.50
2006,12,15,03,09,33.40
2006,12,15,03,10,31.40
2006,12,15,03,11,35.50
2006,12,15,03,12,43.20
2006,12,15,03,13,34.90
2006,12,15,03,14,39.30
2006,12,15,03,15,50.70
2006,12,15,03,16,38.50
2006,12,15,03,17,43.00
2006,12,15,03,18,39.90
2006,12,15,03,19,33.40
2006,12,15,03,20,23.70
2006,12,15,03,21,31.50
2006,12,15,03,22,32.10
2006,12,15,03,23,37.60
2006,12,15,03,24,43.00
2006,12,15,03,25,38.90
2006,12,15,03,26,49.90
2006,12,15,03,27,52.30
2006,12,15,03,28,29.50
2006,12,15,03,29,21.20
2006,12,15,03,30,35.70
2006,12,15,03,31,37.70
2006,12,15,03,32,43.00
2006,12,15,03,33,41.50
2006,12,15,03,34,36.90
2006,12,15,03,35,40.80
2006,12,15,03,36,32.30
2006,12,15,03,37,31.80
2006,12,15,03,38,42.30
2006,12,15,03,39,43.00
2006,12,15,03,40,30.60
2006,12,15,03,41,37.70
2006,12,15,03,42,30.50
2006,12,15,03,43,34.80
2006,12,15,03,44,40.10
2006,12,15,03,45,18.90
2006,12,15,03,46,25.30
2006,12,15,03,47,30.50
2006,12,15,03,48,18.70
2006,12,15,03,49,30.70
2006,12,15,03,50,35.90
2006,12,15,03,51,37.40
2006,12,15,03,52,29.30
2006,12,15,03,53,18.10
2006,12,15,03,54,25.90
2006,12,15,03,55,21.40
2006,12,15,03,56,19.80
2006,12,15,03,57,19.40
2006,12,15,03,58,25.50
2006,12,15,03,59,29.60
2006,12,15,04,00,25.70
2006,12,15,04,01,23.70
2006,12,15,04,02,30.00
2006,12,15,04,03,26.80
2006,12,15,04,04,28.00
2006,12,15,04,05,33.50
2006,12,15,04,06,24.10
2006,12,15,04,07,20.00
2006,12,15,04,08,29.60
2006,12,15,04,09,25.20
2006,12,15,04,10,27.00
2006,12,15,04,11,18.10
2006,12,15,04,12,20.80
2006,12,15,04,13,16.60
2006,12,15,04,14,24.60
2006,12,15,04,15,22.80
2006,12,15,04,16,17.70
2006,12,15,04,17,21.30
2006,12,15,04,18,20.80
2006,12,15,04,19,24.10
2006,12,15,04,20,27.70
2006,12,15,04,21,27.80
2006,12,15,04,22,25.50
2006,12,15,04,23,28.00
2006,12,15,04,24,21.70
2006,12,15,04,25,22.00
2006,12,15,04,26,25.60
2006,12,15,04,27,22.40
2006,12,15,04,28,18.70
2006,12,15,04,29,25.90
2006,12,15,04,30,25.20
2006,12,15,04,31,22.80
2006,12,15,04,32,19.40
2006,12,15,04,33,28.50
2006,12,15,04,34,26.90
2006,12,15,04,35,22.40
2006,12,15,04,36,24.60
2006,12,15,04,37,22.00
2006,12,15,04,38,18.10
2006,12,15,04,39,18.60
2006,12,15,04,40,27.70
2006,12,15,04,41,20.40
2006,12,15,04,42,24.90
2006,12,15,04,43,22.80
2006,12,15,04,44,26.00
2006,12,15,04,45,21.90
2006,12,15,04,46,19.10
2006,12,15,04,47,20.70
2006,12,15,04,48,23.00
2006,12,15,04,49,15.40
2006,12,15,04,50,12.30
2006,12,15,04,51,22.50
2006,12,15,04,52,16.40
2006,12,15,04,53,19.40
2006,12,15,04,54,16.30
2006,12,15,04,55,17.20
2006,12,15,04,56,14.00
2006,12,15,04,57,14.20
2006,12,15,04,58,21.60
2006,12,15,04,59,23.10
2006,12,15,05,00,24.20
2006,12,15,05,01,25.90
2006,12,15,05,02,29.80
2006,12,15,05,03,29.10
2006,12,15,05,04,21.90
2006,12,15,05,05,19.70
2006,12,15,05,06,17.50
2006,12,15,05,07,17.50
2006,12,15,05,08,20.70
2006,12,15,05,09,16.00
2006,12,15,05,10,24.10
2006,12,15,05,11,23.30
2006,12,15,05,12,29.00
2006,12,15,05,13,15.00
2006,12,15,05,14,22.90
2006,12,15,05,15,20.50
2006,12,15,05,16,11.70
2006,12,15,05,17,15.50
2006,12,15,05,18,14.20
2006,12,15,05,19,14.00
2006,12,15,05,20,17.50
2006,12,15,05,21,31.40
2006,12,15,05,22,23.10
2006,12,15,05,23,20.20
2006,12,15,05,24,20.00
2006,12,15,05,25,22.90
2006,12,15,05,26,18.50
2006,12,15,05,27,21.30
2006,12,15,05,28,16.70
2006,12,15,05,29,17.40
2006,12,15,05,30,20.20
2006,12,15,05,31,22.60
2006,12,15,05,32,14.80
2006,12,15,05,33,14.70
2006,12,15,05,34,16.10
2006,12,15,05,35,17.40
2006,12,15,05,36,20.90
2006,12,15,05,37,22.30
2006,12,15,05,38,16.70
2006,12,15,05,39,25.90
2006,12,15,05,40,21.40
2006,12,15,05,41,9.50
2006,12,15,05,42,21.40
2006,12,15,05,43,17.50
2006,12,15,05,44,14.20
2006,12,15,05,45,11.90
2006,12,15,05,46,20.80
2006,12,15,05,47,19.80
2006,12,15,05,48,15.30
2006,12,15,05,49,15.80
2006,12,15,05,50,17.10
2006,12,15,05,51,15.60
2006,12,15,05,52,16.70
2006,12,15,05,53,21.20
2006,12,15,05,54,15.90
2006,12,15,05,55,19.30
2006,12,15,05,56,16.40
2006,12,15,05,57,20.70
2006,12,15,05,58,14.10
2006,12,15,05,59,10.20
2006,12,15,06,00,12.90
2006,12,15,06,01,10.30
2006,12,15,06,02,11.50
2006,12,15,06,03,11.50
2006,12,15,06,04,10.60
2006,12,15,06,05,13.00
2006,12,15,06,06,23.70
2006,12,15,06,07,13.10
2006,12,15,06,08,15.20
2006,12,15,06,09,18.20
2006,12,15,06,10,9.00
2006,12,15,06,11,9.00
2006,12,15,06,12,9.10
2006,12,15,06,13,18.00
2006,12,15,06,14,9.70
2006,12,15,06,15,10.10
2006,12,15,06,16,11.30
2006,12,15,06,17,10.50
2006,12,15,06,18,15.00
2006,12,15,06,19,14.70
2006,12,15,06,20,10.20
2006,12,15,06,21,24.30
2006,12,15,06,22,16.00
2006,12,15,06,23,16.40
2006,12,15,06,24,14.90
2006,12,15,06,25,19.60
2006,12,15,06,26,25.00
2006,12,15,06,27,18.60
2006,12,15,06,28,15.60
2006,12,15,06,29,9.90
2006,12,15,06,30,14.60
2006,12,15,06,31,10.10
2006,12,15,06,32,15.60
2006,12,15,06,33,15.80
2006,12,15,06,34,15.10
2006,12,15,06,35,14.40
2006,12,15,06,36,8.10
2006,12,15,06,37,6.40
2006,12,15,06,38,8.80
2006,12,15,06,39,8.50
2006,12,15,06,40,6.30
2006,12,15,06,41,7.40
2006,12,15,06,42,8.70
2006,12,15,06,43,6.40
2006,12,15,06,44,15.70
2006,12,15,06,45,14.40
2006,12,15,06,46,6.10
2006,12,15,06,47,8.20
2006,12,15,06,48,8.60
2006,12,15,06,49,3.70
2006,12,15,06,50,4.50
2006,12,15,06,51,17.00
2006,12,15,06,52,6.20
2006,12,15,06,53,12.90
2006,12,15,06,54,10.10
2006,12,15,06,55,11.40
2006,12,15,06,56,9.70
2006,12,15,06,57,5.00
2006,12,15,06,58,7.00
2006,12,15,06,59,6.40
2006,12,15,07,00,8.00
2006,12,15,07,01,5.80
2006,12,15,07,02,6.70
2006,12,15,07,03,6.20
2006,12,15,07,04,6.80
2006,12,15,07,05,3.80
2006,12,15,07,06,3.70
2006,12,15,07,07,5.50
2006,12,15,07,08,3.00
2006,12,15,07,09,2.10
2006,12,15,07,10,3.90
2006,12,15,07,11,1.10
2006,12,15,07,12,3.60
2006,12,15,07,13,3.00
2006,12,15,07,14,6.50
2006,12,15,07,15,4.50
2006,12,15,07,16,7.20
2006,12,15,07,17,3.60
2006,12,15,07,18,1.60
2006,12,15,07,19,6.10
2006,12,15,07,20,5.50
2006,12,15,07,21,7.10
2006,12,15,07,22,5.50
2006,12,15,07,23,4.80
2006,12,15,07,24,1.60
2006,12,15,07,25,4.80
2006,12,15,07,26,4.30
2006,12,15,07,27,5.10
2006,12,15,07,28,3.80
2006,12,15,07,29,2.00
2006,12,15,07,30,2.20
2006,12,15,07,31,3.20
2006,12,15,07,32,8.70
2006,12,15,07,33,5.70
2006,12,15,07,34,7.30
2006,12,15,07,35,4.80
2006,12,15,07,36,5.00
2006,12,15,07,37,8.70
2006,12,15,07,38,5.50
2006,12,15,07,39,4.70
2006,12,15,07,40,5.60
2006,12,15,07,41,2.20
2006,12,15,07,42,3.20
2006,12,15,07,43,5.40
2006,12,15,07,44,4.10
2006,12,15,07,45,3.50
2006,12,15,07,46,4.10
2006,12,15,07,47,5.80
2006,12,15,07,48,11.80
2006,12,15,07,49,12.30
2006,12,15,07,50,6.30
2006,12,15,07,51,6.40
2006,12,15,07,52,3.50
2006,12,15,07,53,3.40
2006,12,15,07,54,3.50
2006,12,15,07,55,5.60
2006,12,15,07,56,8.90
2006,12,15,07,57,3.00
2006,12,15,07,58,2.70
2006,12,15,07,59,2.60
2006,12,15,08,00,3.90
2006,12,15,08,01,12.00
2006,12,15,08,02,7.80
2006,12,15,08,03,6.60
2006,12,15,08,04,10.00
2006,12,15,08,05,6.80
2006,12,15,08,06,1.90
2006,12,15,08,07,6.40
2006,12,15,08,08,4.10
2006,12,15,08,09,6.20
2006,12,15,08,10,6.90
2006,12,15,08,11,6.60
2006,12,15,08,12,5.20
2006,12,15,08,13,3.60
2006,12,15,08,14,1.60
2006,12,15,08,15,3.50
2006,12,15,08,16,3.60
2006,12,15,08,17,3.70
2006,12,15,08,18,2.10
2006,12,15,08,19,0.60
2006,12,15,08,20,2.40
2006,12,15,08,21,4.20
2006,12,15,08,22,5.30
2006,12,15,08,23,5.90
2006,12,15,08,24,2.30
2006,12,15,08,25,3.40
2006,12,15,08,26,7.60
2006,12,15,08,27,7.90
2006,12,15,08,28,4.00
2006,12,15,08,29,5.50
2006,12,15,08,30,4.30
2006,12,15,08,31,5.50
2006,12,15,08,32,3.50
2006,12,15,08,33,4.00
2006,12,15,08,34,4.60
2006,12,15,08,35,3.00
2006,12,15,08,36,4.70
2006,12,15,08,37,4.30
2006,12,15,08,38,1.70
2006,12,15,08,39,7.80
2006,12,15,08,40,10.10
2006,12,15,08,41,5.80
2006,12,15,08,42,3.90
2006,12,15,08,43,8.10
2006,12,15,08,44,6.10
2006,12,15,08,45,4.20
2006,12,15,08,46,3.90
2006,12,15,08,47,2.40
2006,12,15,08,48,5.70
2006,12,15,08,49,5.00
2006,12,15,08,50,6.60
2006,12,15,08,51,5.30
2006,12,15,08,52,3.80
2006,12,15,08,53,5.10
2006,12,15,08,54,4.50
2006,12,15,08,55,4.10
2006,12,15,08,56,6.60
2006,12,15,08,57,8.70
2006,12,15,08,58,4.60
2006,12,15,08,59,6.90
2006,12,15,09,00,10.80
2006,12,15,09,01,8.00
2006,12,15,09,02,11.90
2006,12,15,09,03,15.00
2006,12,15,09,04,9.90
2006,12,15,09,05,8.30
2006,12,15,09,06,12.10
2006,12,15,09,07,8.80
2006,12,15,09,08,7.60
2006,12,15,09,09,3.40
2006,12,15,09,10,6.00
2006,12,15,09,11,11.30
2006,12,15,09,12,8.40
2006,12,15,09,13,14.80
2006,12,15,09,14,11.60
2006,12,15,09,15,9.90
2006,12,15,09,16,7.40
2006,12,15,09,17,5.80
2006,12,15,09,18,5.30
2006,12,15,09,19,9.20
2006,12,15,09,20,4.90
2006,12,15,09,21,1.90
2006,12,15,09,22,1.60
2006,12,15,09,23,10.10
2006,12,15,09,24,5.40
2006,12,15,09,25,4.70
2006,12,15,09,26,9.50
2006,12,15,09,27,9.20
2006,12,15,09,28,8.90
2006,12,15,09,29,4.10
2006,12,15,09,30,5.00
2006,12,15,09,31,10.20
2006,12,15,09,32,6.00
2006,12,15,09,33,8.00
2006,12,15,09,34,6.80
2006,12,15,09,35,8.50
2006,12,15,09,36,9.30
2006,12,15,09,37,4.70
2006,12,15,09,38,18.50
2006,12,15,09,39,16.90
2006,12,15,09,40,7.80
2006,12,15,09,41,8.80
2006,12,15,09,42,10.80
2006,12,15,09,43,10.40
2006,12,15,09,44,6.60
2006,12,15,09,45,6.00
2006,12,15,09,46,4.30
2006,12,15,09,47,3.80
2006,12,15,09,48,2.80
2006,12,15,09,49,10.50
2006,12,15,09,50,8.40
2006,12,15,09,51,5.00
2006,12,15,09,52,2.50
2006,12,15,09,53,4.30
2006,12,15,09,54,2.50
2006,12,15,09,55,3.00
2006,12,15,09,56,8.70
2006,12,15,09,57,7.20
2006,12,15,09,58,6.70
2006,12,15,09,59,8.00
2006,12,15,10,00,5.60
2006,12,15,10,01,14.90
2006,12,15,10,02,8.60
2006,12,15,10,03,5.70
2006,12,15,10,04,8.40
2006,12,15,10,05,5.60
2006,12,15,10,06,8.00
2006,12,15,10,07,8.40
2006,12,15,10,08,5.40
2006,12,15,10,09,5.40
2006,12,15,10,10,12.30
2006,12,15,10,11,13.40
2006,12,15,10,12,10.00
2006,12,15,10,13,6.90
2006,12,15,10,14,6.80
2006,12,15,10,15,4.60
2006,12,15,10,16,6.00
2006,12,15,10,17,9.20
2006,12,15,10,18,12.00
2006,12,15,10,19,6.60
2006,12,15,10,20,5.60
2006,12,15,10,21,5.30
2006,12,15,10,22,6.80
2006,12,15,10,23,6.00
2006,12,15,10,24,8.40
2006,12,15,10,25,6.20
2006,12,15,10,26,3.60
2006,12,15,10,27,1.30
2006,12,15,10,28,4.50
2006,12,15,10,29,4.30
2006,12,15,10,30,8.50
2006,12,15,10,31,6.30
2006,12,15,10,32,2.30
2006,12,15,10,33,5.90
2006,12,15,10,34,9.20
2006,12,15,10,35,9.10
2006,12,15,10,36,13.20
2006,12,15,10,37,9.10
2006,12,15,10,38,7.70
2006,12,15,10,39,13.80
2006,12,15,10,40,9.80
2006,12,15,10,41,5.50
2006,12,15,10,42,3.50
2006,12,15,10,43,5.30
2006,12,15,10,44,5.20
2006,12,15,10,45,7.20
2006,12,15,10,46,2.50
2006,12,15,10,47,4.50
2006,12,15,10,48,7.20
2006,12,15,10,49,2.20
2006,12,15,10,50,6.70
2006,12,15,10,51,7.80
2006,12,15,10,52,9.00
2006,12,15,10,53,13.00
2006,12,15,10,54,8.40
2006,12,15,10,55,6.60
2006,12,15,10,56,8.10
2006,12,15,10,57,6.90
2006,12,15,10,58,7.00
2006,12,15,10,59,8.50
2006,12,15,11,00,4.30
2006,12,15,11,01,8.10
2006,12,15,11,02,2.30
2006,12,15,11,03,1.80
2006,12,15,11,04,6.70
2006,12,15,11,05,9.70
2006,12,15,11,06,5.80
2006,12,15,11,07,2.60
2006,12,15,11,08,5.40
2006,12,15,11,09,10.60
2006,12,15,11,10,4.30
2006,12,15,11,11,4.40
2006,12,15,11,12,9.30
2006,12,15,11,13,5.90
2006,12,15,11,14,3.40
2006,12,15,11,15,6.40
2006,12,15,11,16,11.90
2006,12,15,11,17,8.90
2006,12,15,11,18,3.30
2006,12,15,11,19,4.30
2006,12,15,11,20,4.20
2006,12,15,11,21,8.30
2006,12,15,11,22,8.90
2006,12,15,11,23,5.70
2006,12,15,11,24,1.90
2006,12,15,11,25,1.50
2006,12,15,11,26,1.60
2006,12,15,11,27,3.60
2006,12,15,11,28,5.40
2006,12,15,11,29,4.60
2006,12,15,11,30,0.20
2006,12,15,11,31,6.10
2006,12,15,11,32,3.40
2006,12,15,11,33,5.30
2006,12,15,11,34,5.10
2006,12,15,11,35,6.40
2006,12,15,11,36,8.10
2006,12,15,11,37,9.90
2006,12,15,11,38,11.40
2006,12,15,11,39,7.70
2006,12,15,11,40,6.40
2006,12,15,11,41,6.70
2006,12,15,11,42,3.70
2006,12,15,11,43,4.10
2006,12,15,11,44,4.90
2006,12,15,11,45,3.60
2006,12,15,11,46,10.20
2006,12,15,11,47,6.80
2006,12,15,11,48,2.70
2006,12,15,11,49,4.30
2006,12,15,11,50,2.50
2006,12,15,11,51,4.30
2006,12,15,11,52,3.40
2006,12,15,11,53,7.50
2006,12,15,11,54,5.60
2006,12,15,11,55,5.00
2006,12,15,11,56,5.10
2006,12,15,11,57,4.80
2006,12,15,11,58,7.80
2006,12,15,11,59,5.20
2006,12,15,12,00,5.70
2006,12,15,12,01,1.50
2006,12,15,12,02,1.20
2006,12,15,12,03,7.10
2006,12,15,12,04,5.60
2006,12,15,12,05,6.90
2006,12,15,12,06,13.40
2006,12,15,12,07,11.30
2006,12,15,12,08,10.50
2006,12,15,12,09,3.10
2006,12,15,12,10,9.40
2006,12,15,12,11,6.30
2006,12,15,12,12,5.00
2006,12,15,12,13,4.70
2006,12,15,12,14,8.80
2006,12,15,12,15,9.90
2006,12,15,12,16,6.90
2006,12,15,12,17,4.40
2006,12,15,12,18,9.10
2006,12,15,12,19,8.90
2006,12,15,12,20,6.70
2006,12,15,12,21,3.40
2006,12,15,12,22,7.20
2006,12,15,12,23,5.30
2006,12,15,12,24,8.90
2006,12,15,12,25,11.00
2006,12,15,12,26,4.40
2006,12,15,12,27,6.50
2006,12,15,12,28,4.30
2006,12,15,12,29,4.90
2006,12,15,12,30,7.90
2006,12,15,12,31,4.30
2006,12,15,12,32,4.10
2006,12,15,12,33,6.90
2006,12,15,12,34,6.00
2006,12,15,12,35,3.50
2006,12,15,12,36,3.30
2006,12,15,12,37,6.60
2006,12,15,12,38,9.00
2006,12,15,12,39,9.40
2006,12,15,12,40,9.50
2006,12,15,12,41,12.90
2006,12,15,12,42,9.20
2006,12,15,12,43,9.30
2006,12,15,12,44,9.00
2006,12,15,12,45,5.30
2006,12,15,12,46,4.20
2006,12,15,12,47,9.10
2006,12,15,12,48,2.70
2006,12,15,12,49,9.70
2006,12,15,12,50,8.40
2006,12,15,12,51,8.50
2006,12,15,12,52,5.40
2006,12,15,12,53,4.70
2006,12,15,12,54,4.80
2006,12,15,12,55,7.90
2006,12,15,12,56,3.80
2006,12,15,12,57,4.30
2006,12,15,12,58,8.30
2006,12,15,12,59,11.00
2006,12,15,13,00,9.30
2006,12,15,13,01,4.00
2006,12,15,13,02,7.60
2006,12,15,13,03,7.40
2006,12,15,13,04,10.50
2006,12,15,13,05,6.00
2006,12,15,13,06,6.00
2006,12,15,13,07,5.80
2006,12,15,13,08,2.70
2006,12,15,13,09,2.30
2006,12,15,13,10,1.40
2006,12,15,13,11,5.50
2006,12,15,13,12,10.90
2006,12,15,13,13,6.90
2006,12,15,13,14,15.80
2006,12,15,13,15,13.30
2006,12,15,13,16,14.70
2006,12,15,13,17,10.80
2006,12,15,13,18,7.20
2006,12,15,13,19,6.10
2006,12,15,13,20,12.30
2006,12,15,13,21,7.30
2006,12,15,13,22,11.50
2006,12,15,13,23,9.40
2006,12,15,13,24,6.70
2006,12,15,13,25,3.90
2006,12,15,13,26,5.60
2006,12,15,13,27,6.70
2006,12,15,13,28,7.70
2006,12,15,13,29,7.40
2006,12,15,13,30,4.60
2006,12,15,13,31,8.60
2006,12,15,13,32,8.50
2006,12,15,13,33,8.20
2006,12,15,13,34,7.80
2006,12,15,13,35,11.30
2006,12,15,13,36,9.50
2006,12,15,13,37,11.10
2006,12,15,13,38,10.30
2006,12,15,13,39,6.30
2006,12,15,13,40,5.20
2006,12,15,13,41,8.60
2006,12,15,13,42,9.10
2006,12,15,13,43,7.20
2006,12,15,13,44,4.20
2006,12,15,13,45,1.90
2006,12,15,13,46,5.80
2006,12,15,13,47,6.10
2006,12,15,13,48,10.80
2006,12,15,13,49,18.40
2006,12,15,13,50,6.00
2006,12,15,13,51,2.90
2006,12,15,13,52,4.30
2006,12,15,13,53,7.90
2006,12,15,13,54,7.60
2006,12,15,13,55,4.40
2006,12,15,13,56,4.60
2006,12,15,13,57,5.90
2006,12,15,13,58,6.80
2006,12,15,13,59,3.70
2006,12,15,14,00,2.70
2006,12,15,14,01,4.70
2006,12,15,14,02,8.00
2006,12,15,14,03,9.00
2006,12,15,14,04,6.10
2006,12,15,14,05,5.50
2006,12,15,14,06,4.70
2006,12,15,14,07,4.30
2006,12,15,14,08,4.10
2006,12,15,14,09,5.80
2006,12,15,14,10,3.40
2006,12,15,14,11,2.40
2006,12,15,14,12,4.50
2006,12,15,14,13,10.00
2006,12,15,14,14,9.10
2006,12,15,14,15,8.50
2006,12,15,14,16,8.60
2006,12,15,14,17,3.30
2006,12,15,14,18,4.50
2006,12,15,14,19,5.80
2006,12,15,14,20,3.30
2006,12,15,14,21,4.40
2006,12,15,14,22,3.00
2006,12,15,14,23,2.30
2006,12,15,14,24,3.80
2006,12,15,14,25,3.70
2006,12,15,14,26,5.10
2006,12,15,14,27,8.20
2006,12,15,14,28,2.90
2006,12,15,14,29,3.80
2006,12,15,14,30,3.10
2006,12,15,14,31,3.10
2006,12,15,14,32,3.10
2006,12,15,14,33,6.40
2006,12,15,14,34,5.00
2006,12,15,14,35,4.40
2006,12,15,14,36,1.20
2006,12,15,14,37,7.50
2006,12,15,14,38,6.10
2006,12,15,14,39,4.00
2006,12,15,14,40,3.90
2006,12,15,14,41,4.90
2006,12,15,14,42,4.50
2006,12,15,14,43,7.90
2006,12,15,14,44,7.70
2006,12,15,14,45,6.20
2006,12,15,14,46,5.10
2006,12,15,14,47,11.80
2006,12,15,14,48,5.90
2006,12,15,14,49,5.20
2006,12,15,14,50,6.90
2006,12,15,14,51,4.60
2006,12,15,14,52,5.30
2006,12,15,14,53,5.80
2006,12,15,14,54,7.80
2006,12,15,14,55,5.20
2006,12,15,14,56,8.30
2006,12,15,14,57,6.00
2006,12,15,14,58,5.40
2006,12,15,14,59,4.10
2006,12,15,15,00,4.00
2006,12,15,15,01,4.50
2006,12,15,15,02,4.90
2006,12,15,15,03,3.20
2006,12,15,15,04,4.90
2006,12,15,15,05,4.80
2006,12,15,15,06,3.90
2006,12,15,15,07,1.60
2006,12,15,15,08,3.70
2006,12,15,15,09,3.20
2006,12,15,15,10,2.80
2006,12,15,15,11,3.90
2006,12,15,15,12,5.00
2006,12,15,15,13,4.70
2006,12,15,15,14,2.10
2006,12,15,15,15,0.60
2006,12,15,15,16,1.70
2006,12,15,15,17,2.00
2006,12,15,15,18,1.90
2006,12,15,15,19,1.90
2006,12,15,15,20,6.20
2006,12,15,15,21,5.80
2006,12,15,15,22,2.40
2006,12,15,15,23,1.40
2006,12,15,15,24,2.40
2006,12,15,15,25,2.20
2006,12,15,15,26,1.50
2006,12,15,15,27,1.30
2006,12,15,15,28,3.60
2006,12,15,15,29,2.70
2006,12,15,15,30,3.00
2006,12,15,15,31,6.00
2006,12,15,15,32,5.50
2006,12,15,15,33,1.40
2006,12,15,15,34,1.50
2006,12,15,15,35,2.70
2006,12,15,15,36,3.80
2006,12,15,15,37,5.40
2006,12,15,15,38,4.10
2006,12,15,15,39,3.10
2006,12,15,15,40,3.50
2006,12,15,15,41,6.10
2006,12,15,15,42,3.70
2006,12,15,15,43,6.20
2006,12,15,15,44,2.90
2006,12,15,15,45,4.20
2006,12,15,15,46,1.40
2006,12,15,15,47,2.20
2006,12,15,15,48,2.10
2006,12,15,15,49,3.20
2006,12,15,15,50,2.50
2006,12,15,15,51,2.60
2006,12,15,15,52,1.60
2006,12,15,15,53,3.80
2006,12,15,15,54,5.00
2006,12,15,15,55,6.30
2006,12,15,15,56,3.10
2006,12,15,15,57,2.20
2006,12,15,15,58,1.00
2006,12,15,15,59,3.30
2006,12,15,16,00,2.30
2006,12,15,16,01,2.60
2006,12,15,16,02,4.10
2006,12,15,16,03,2.00
2006,12,15,16,04,2.60
2006,12,15,16,05,4.30
2006,12,15,16,06,2.30
2006,12,15,16,07,3.70
2006,12,15,16,08,3.90
2006,12,15,16,09,4.70
2006,12,15,16,10,4.40
2006,12,15,16,11,7.30
2006,12,15,16,12,5.60
2006,12,15,16,13,8.30
2006,12,15,16,14,11.50
2006,12,15,16,15,11.30
2006,12,15,16,16,8.10
2006,12,15,16,17,7.30
2006,12,15,16,18,4.50
2006,12,15,16,19,4.50
2006,12,15,16,20,6.80
2006,12,15,16,21,3.00
2006,12,15,16,22,5.80
2006,12,15,16,23,5.10
2006,12,15,16,24,3.00
2006,12,15,16,25,4.70
2006,12,15,16,26,3.30
2006,12,15,16,27,3.30
2006,12,15,16,28,4.20
2006,12,15,16,29,5.90
2006,12,15,16,30,8.50
2006,12,15,16,31,6.80
2006,12,15,16,32,5.30
2006,12,15,16,33,7.40
2006,12,15,16,34,4.80
2006,12,15,16,35,7.70
2006,12,15,16,36,5.40
2006,12,15,16,37,7.20
2006,12,15,16,38,5.20
2006,12,15,16,39,3.10
2006,12,15,16,40,6.00
2006,12,15,16,41,6.00
2006,12,15,16,42,5.80
2006,12,15,16,43,6.20
2006,12,15,16,44,6.00
2006,12,15,16,45,5.30
2006,12,15,16,46,5.40
2006,12,15,16,47,3.70
2006,12,15,16,48,5.30
2006,12,15,16,49,3.20
2006,12,15,16,50,5.00
2006,12,15,16,51,5.10
2006,12,15,16,52,4.30
2006,12,15,16,53,4.90
2006,12,15,16,54,4.10
2006,12,15,16,55,4.90
2006,12,15,16,56,4.00
2006,12,15,16,57,4.60
2006,12,15,16,58,5.30
2006,12,15,16,59,4.70
2006,12,15,17,00,3.20
2006,12,15,17,01,3.50
2006,12,15,17,02,3.20
2006,12,15,17,03,3.40
2006,12,15,17,04,3.30
2006,12,15,17,05,6.10
2006,12,15,17,06,4.00
2006,12,15,17,07,3.60
2006,12,15,17,08,4.20
2006,12,15,17,09,3.90
2006,12,15,17,10,4.90
2006,12,15,17,11,5.90
2006,12,15,17,12,4.70
2006,12,15,17,13,5.30
2006,12,15,17,14,4.70
2006,12,15,17,15,6.40
2006,12,15,17,16,5.10
2006,12,15,17,17,5.70
2006,12,15,17,18,6.40
2006,12,15,17,19,5.40
2006,12,15,17,20,5.60
2006,12,15,17,21,6.80
2006,12,15,17,22,5.90
2006,12,15,17,23,5.20
2006,12,15,17,24,5.30
2006,12,15,17,25,4.90
2006,12,15,17,26,5.60
2006,12,15,17,27,5.30
2006,12,15,17,28,6.80
2006,12,15,17,29,5.60
2006,12,15,17,30,5.70
2006,12,15,17,31,6.80
2006,12,15,17,32,7.70
2006,12,15,17,33,6.40
2006,12,15,17,34,8.60
2006,12,15,17,35,6.20
2006,12,15,17,36,6.60
2006,12,15,17,37,7.00
2006,12,15,17,38,7.60
2006,12,15,17,39,7.70
2006,12,15,17,40,7.20
2006,12,15,17,41,7.00
2006,12,15,17,42,6.40
2006,12,15,17,43,7.60
2006,12,15,17,44,6.60
2006,12,15,17,45,6.80
2006,12,15,17,46,6.60